Regional Weather Roundup
Issued by NWS

Home | Current Version | Previous Version | Text Only | Print | Product List | Glossary Off
Versions: 1 2 3 4 5 6 7 8 9 10 11 12 13 14 15 16 17 18 19 20 21 22 23 24 25 26 27 28 29 30 31 32 33 34 35 36 37 38 39 40 41 42 43 44 45 46 47 48 49 50

000
ASUS43 KFSD 162102
RWRSD

WEATHER ROUNDUP FOR SOUTH DAKOTA
NATIONAL WEATHER SERVICE SIOUX FALLS SD
400 PM CDT TUE SEP 16 2014

NOTE: "FAIR" INDICATES FEW OR NO CLOUDS BELOW 12,000 FEET WITH NO
SIGNIFICANT WEATHER AND/OR OBSTRUCTIONS TO VISIBILITY.


SDZ001>005-009-010-012>017-162200-
NORTHWEST AND NORTH CENTRAL SOUTH DAKOTA

CITY           SKY/WX    TMP DP  RH WIND       PRES   REMARKS
FAITH            N/A     75  47  36 VRB5      29.94F
MOBRIDGE       SUNNY     73  51  46 CALM      29.91F
$$

SDZ012>016-024>037-041>051-057-063-072>074-162200-
SOUTHWEST AND SOUTH CENTRAL SOUTH DAKOTA

CITY           SKY/WX    TMP DP  RH WIND       PRES   REMARKS
RAPID CTY ARPT MOSUNNY   80  44  27 SE6       29.97F
PIERRE         SUNNY     75  52  44 CALM      29.92F
CUSTER         SUNNY     79  30  16 W15G22    30.10F
ELLSWORTH AFB  MOSUNNY   80  45  29 SW5       29.97F
PHILIP         SUNNY     80  51  36 E5        29.93F
PINE RIDGE     MOSUNNY   80  49  33 CALM      29.99F
WINNER         FAIR      78  55  44 SW7       29.94F
$$

SDZ004>011-016>023-039-040-162200-
NORTHEAST SOUTH DAKOTA

CITY           SKY/WX    TMP DP  RH WIND       PRES   REMARKS
ABERDEEN       SUNNY     70  51  51 S9        29.95F
WATERTOWN      SUNNY     69  50  50 S14       29.99F
SISSETON         N/A     73  48  41 SW10G23   29.96F
$$

SDZ017-020-022-023-036>040-048>070-162200-
SOUTHEAST SOUTH DAKOTA

CITY           SKY/WX    TMP DP  RH WIND       PRES   REMARKS
SIOUX FALLS    PTSUNNY   67  49  52 S17       30.03F
HURON          SUNNY     73  52  47 S18       29.95F
CHAMBERLAIN    SUNNY     75  57  53 S7        29.93F
MITCHELL       SUNNY     73  54  51 S15G23    29.97F
YANKTON        SUNNY     70  52  52 S15G21    30.01F
$$

ABBREVIATIONS USED IN REMARKS
   TC - TEMPERATURE IN CELSIUS
  WCI - WIND CHILL INDEX
   HX - HEAT INDEX
  VSB - VISIBILITY



USA.gov is the U.S. government's official web portal to all federal, state and local government web resources and services.